Location: Moscow
(55.7500°N, 37.5830°E)
Time: 17:49:35
(UTC+03:00)

A-11 Canister half - Pass Details

Date: 30 November 2021
Orbit: 1516 x 1684 km, 47.2° (Epoch: 19 January)

Event Time Altitude Azimuth Distance (km) Brightness Sun altitude
Rises 09:48:03 0° 236° (SW) 4,815 11.6 6.3°
Reaches altitude 10° 09:51:16 10° 231° (SW) 3,853 11.2 6.5°
Maximum altitude 10:00:30 47° 162° (SSE) 2,105 10.7 7.2°
Drops below altitude 10° 10:09:57 10° 93° (E) 3,947 11.7 7.9°
Sets 10:13:17 0° 88° (E) 4,940 12.1 8.1°
